Terminal Aerodrome Forecast
Issued by NWS Chicago, IL

Home | Current Version | Previous Version | Graphics & Text | Print | Product List | Glossary On
Versions: 1 2 3 4 5 6 7 8 9 10 11 12 13 14 15 16 17 18 19 20
938
FTUS43 KLOT 220855 AAA
TAFRFD
TAF AMD
KRFD 220855Z 2209/2306 08006KT P6SM OVC120
     FM221600 09011KT P6SM BKN250
     FM230100 07006KT P6SM SCT250=

USA.gov is the U.S. government's official web portal to all federal, state and local government web resources and services.